Location: Ç?ral? Körfezi
(36.3984°N, 30.4829°E)
Time: 16:41:23
(UTC+00:00)

Resurs 01 Rocket - Pass Details

Date: 04 August 2024
Orbit: 629 x 639 km, 97.8° (Epoch: 19 September)

Event Time Altitude Azimuth Distance (km) Brightness Sun altitude
Exits shadow 19:01:29 - 210° (SSW) 2,907 4.9 -21.4°
Reaches altitude 10° 19:04:39 10° 236° (SW) 2,014 4.3 -21.9°
Maximum altitude 19:06:56 14° 268° (W) 1,769 4.4 -22.2°
Drops below altitude 10° 19:09:15 10° 299° (WNW) 2,025 5.2 -22.6°
Sets 19:12:29 0° 325° (NW) 2,942 6.4 -23.0°
